Notices

What's New in latest Release from April 7th, 2021:

- Updated Glossary, including Speed of Maximum Gust, and Total Hourly Precipitation

- Updated national and regional climate services offices contacts and prices information

- Addition of station inventory lists for 1981-2010, 1971-2000, and 1961-1990 Normals.

If you haven't already, please take our survey and provide feedback about our website: https://eccc.sondage-survey.ca/f/LanguageSelection.aspx?s=442ca660-fcf1-47c0-95a9-59707d6fd709

Hourly Data Report for November 21, 2019

MIRAMICHI RCS
NEW BRUNSWICK
Current Station Operator: ECCC - MSC

47°00'34.000" N
65°27'54.000" W
33.00 m
8100989
71744
ACQ

Download Data

Hourly Data (November 2019)
Hourly Data Report for November 21, 2019
TIME
LST
Temp Definition
°C
Dew Point Definition
°C
Rel Hum Definition
%
Precip. Amount Definition
mm

Wind Dir Definition
10's deg

Wind Spd Definition
km/h
Visibility Definition
km
Stn Press Definition
kPa
Hmdx Definition


Wind Chill Definition


Weather Definition


00:00 0.4 -0.8 92 0.0 36 10   101.07     LegendNANA
01:00 0.2 -0.7 93 0.0 36 10   101.07     LegendNANA
02:00 0.4 -0.8 91 0.0 36 9   101.10     LegendNANA
03:00 0.3 -0.8 92 0.0 36 8   101.10     LegendNANA
04:00 0.0 -0.8 94 0.0 36 6   101.08   -2 LegendNANA
05:00 -0.1 -1.1 93 0.0 34 8   101.11   -3 LegendNANA
06:00 0.0 -1.0 93 0.0 34 9   101.13   -3 LegendNANA
07:00 0.1 -0.9 93 0.0 35 7   101.17     LegendNANA
08:00 0.3 -0.8 92 0.0 35 7   101.24     LegendNANA
09:00 0.6 -0.8 90 0.0 36 8   101.27     LegendNANA
10:00 1.0 -0.7 89 0.0 35 7   101.27     LegendNANA
11:00 1.2 -0.6 88 0.0 35 8   101.24     LegendNANA
12:00 1.5 -0.8 85 0.0 35 10   101.18     LegendNANA
13:00 1.8 -1.0 82 0.0 35 8   101.14     LegendNANA
14:00 1.8 -0.9 82 0.0 35 8   101.13     LegendNANA
15:00 1.7 -1.2 81 0.0 34 8   101.13     LegendNANA
16:00 1.4 -1.4 82 0.0 33 6   101.17     LegendNANA
17:00 1.0 -1.7 82 0.0 33 6   101.12     LegendNANA
18:00 0.7 -1.7 84 0.0 31 8   101.18     LegendNANA
19:00 0.6 -1.9 83 0.0 32 6   101.17     LegendNANA
20:00 0.3 -1.9 85 0.0 31 4   101.20     LegendNANA
21:00 0.1 -2.2 85 0.0 31 8   101.14     LegendNANA
22:00 0.1 -2.3 84 0.0 30 8   101.12     LegendNANA
23:00 -0.2 -2.2 86 0.0 22 7   101.03   -3 LegendNANA

Notes on Data Quality.

Legend

  • E = Estimated
  • M = Missing
  • NA = Not Available*
  • [empty] = Indicates an unobserved value
Date modified: